Terminal Aerodrome Forecast
Issued by NWS

Home | Current Version | Previous Version | Text Only | Print | Product List | Glossary On
Versions: 1 2 3 4 5 6 7 8 9 10 11 12 13 14 15 16
000
FTUS41 KBGM 241120
TAFITH
TAF
KITH 241120Z 2412/2512 12003KT P6SM SKC
     FM241400 26008KT P6SM SCT250
     FM250000 15005KT P6SM SCT120 BKN200
     FM250600 12004KT P6SM BKN050 OVC090=

USA.gov is the U.S. government's official web portal to all federal, state and local government web resources and services.